EW9798 Weather Reports


Display with metric or nautical units.
time (UTC)temp
F
wind
direction
speed
MPH
gust
MPH
rain 1hr
in
rain 24hr
in
rain mn
in
humidity
%
barometer
mb
20260506050108 57 57 5.0 8.0 0.00 0.00 0.00 78 1015.7
20260506044608 58 66 4.0 10.0 0.00 0.00 0.00 78 1015.6
20260506043030 58 69 4.0 9.0 0.00 0.00 0.00 77 1015.4
20260506041602 59 77 5.0 9.0 0.00 0.00 0.00 75 1015.4
20260506040039 59 69 6.0 13.0 0.00 0.00 0.00 74 1015.1
20260506034529 60 65 6.0 12.0 0.00 0.00 0.00 73 1014.9
20260506031531 62 61 6.0 12.0 0.00 0.00 0.00 70 1014.4
20260506030031 63 62 7.0 12.0 0.00 0.00 0.00 68 1014.1
20260506024605 64 57 7.0 13.0 0.00 0.00 0.00 67 1013.9
20260506023035 64 55 7.0 14.0 0.00 0.00 0.00 66 1013.7
20260506020030 66 58 8.0 16.0 0.00 0.00 0.00 63 1013.5
20260506014530 67 59 8.0 17.0 0.00 0.00 0.00 61 1013.5
20260506011530 68 49 7.0 13.0 0.00 0.00 0.00 59 1013.4
20260506010030 69 46 7.0 14.0 0.00 0.00 0.00 59 1013.4
20260506004607 69 48 9.0 14.0 0.00 0.00 0.00 58 1013.3
20260506003029 70 40 7.0 13.0 0.00 0.00 0.00 58 1013.2
20260506001542 70 45 6.0 11.0 0.00 0.00 0.00 59 1013.2
20260506000030 70 42 7.0 12.0 0.00 0.00 0.00 59 1013.4
20260505234530 70 44 7.0 13.0 0.00 0.00 0.00 59 1013.5
20260505233031 71 46 8.0 13.0 0.00 0.00 0.00 59 1013.5
20260505231606 71 43 7.0 15.0 0.00 0.00 0.00 58 1013.5
20260505230031 72 25 6.0 12.0 0.00 0.00 0.00 59 1013.7
20260505224531 72 29 6.0 13.0 0.00 0.00 0.00 59 1013.7
20260505221606 71 33 6.0 12.0 0.00 0.00 0.00 59 1014.0
20260505220030 71 10 5.0 10.0 0.00 0.00 0.00 59 1014.1
20260505214644 71 351 6.0 13.0 0.00 0.00 0.00 58 1014.3
20260505213028 71 349 5.0 10.0 0.00 0.00 0.00 58 1014.3
20260505210030 71 354 5.0 10.0 0.00 0.00 0.00 55 1014.5
20260505204531 71 338 5.0 10.0 0.00 0.00 0.00 56 1014.7
20260505203032 70 351 5.0 11.0 0.00 0.00 0.00 56 1014.8
20260505200107 69 342 5.0 10.0 0.00 0.00 0.00 58 1015.0
20260505194605 68 354 5.0 11.0 0.00 0.00 0.00 60 1015.1
20260505191532 68 350 5.0 13.0 0.00 0.00 0.00 62 1015.2
20260505183032 66 340 6.0 12.0 0.00 0.00 0.00 66 1015.5
20260505181530 65 340 6.0 12.0 0.00 0.00 0.00 67 1015.5
20260505180032 64 327 7.0 14.0 0.00 0.00 0.00 68 1015.5
20260505174529 64 337 7.0 14.0 0.00 0.00 0.00 69 1015.5
20260505173029 63 335 6.0 15.0 0.00 0.00 0.00 70 1015.4
20260505170032 62 332 6.0 12.0 0.00 0.00 0.00 72 1015.5
20260505164531 62 352 5.0 11.0 0.00 0.00 0.00 73 1015.4
20260505163034 62 335 5.0 10.0 0.00 0.00 0.00 74 1015.4
20260505151614 58 19 3.0 6.0 0.00 0.00 0.00 84 1015.3
20260505150107 57 72 3.0 6.0 0.00 0.00 0.00 87 1015.3
20260505123030 52 93 3.0 6.0 0.00 0.00 0.00 89 1014.3
20260505121533 52 108 3.0 5.0 0.00 0.00 0.00 89 1014.1
20260505120030 53 96 4.0 6.0 0.00 0.00 0.00 89 1014.1
20260505114533 53 95 3.0 5.0 0.00 0.00 0.00 89 1014.0
20260505113029 54 81 4.0 7.0 0.00 0.00 0.00 88 1014.0
20260505111533 54 87 3.0 7.0 0.00 0.00 0.00 88 1013.9
20260505101549 55 87 4.0 8.0 0.00 0.00 0.00 87 1013.4
20260505094645 55 89 3.0 6.0 0.00 0.00 0.00 86 1013.2
20260505093031 56 94 4.0 6.0 0.00 0.00 0.00 86 1013.1
20260505091531 56 85 4.0 7.0 0.00 0.00 0.00 86 1013.0
20260505090036 56 90 3.0 5.0 0.00 0.00 0.00 85 1012.9
20260505083030 57 90 3.0 5.0 0.00 0.00 0.00 83 1012.8
20260505081533 58 82 3.0 5.0 0.00 0.00 0.00 81 1012.7
20260505080028 59 82 3.0 5.0 0.00 0.00 0.00 79 1012.5
20260505074532 60 95 3.0 5.0 0.00 0.00 0.00 75 1012.4
20260505071532 64 272 1.0 4.0 0.00 0.00 0.00 68 1012.2
20260505070032 66 261 3.0 10.0 0.00 0.00 0.00 65 1012.0
20260505064528 66 221 5.0 12.0 0.00 0.00 0.00 65 1011.9
20260505063030 66 210 5.0 12.0 0.00 0.00 0.00 64 1011.9
20260505061538 66 209 5.0 11.0 0.00 0.00 0.00 64 1011.8
20260505060037 66 214 5.0 15.0 0.00 0.00 0.00 63 1011.8
20260505054530 66 218 4.0 11.0 0.00 0.00 0.00 62 1011.8
20260505053033 66 237 4.0 14.0 0.00 0.00 0.00 60 1011.7